This demonstration page uses our WeatherBlox Daily Observations layout. Learn more.

Left ArrowRight Arrow

Hourly Observations for December 3, 2021

Temp ( °F °C ) Dew Point ( °F °C ) Humidity (%) Winds ( mph kmh ) Pressure ( in mb ) Visibility ( mi km ) Precip ( " mm )
12:56 am 00:56 Clear 47 8.2 36 2.2 66 66 SE 3 6 29.88 1012 10 16 0.00 0.00
1:56 am 01:56 Clear 44 6.6 35 1.9 72 72 Calm 29.87 1012 10 16 0.00 0.00
2:56 am 02:56 Clear 44 6.4 35 1.9 73 73 Calm 29.86 1011 10 16 0.00 0.00
3:56 am 03:56 Clear 41 5.2 35 1.5 77 77 WNW 5 7 29.88 1012 10 16 0.00 0.00
4:56 am 04:56 Clear 40 4.3 34 1 79 79 NNW 5 7 29.89 1012 10 16 0.00 0.00
5:56 am 05:56 Clear 43 5.9 34 1.2 72 72 N 10 17 29.93 1014 10 16 0.00 0.00
6:56 am 06:56 Clear 40 4.7 32 0.1 72 72 N 7 11 29.96 1015 10 16 0.00 0.00
7:56 am 07:56 undefined 39 4.1 31 -0.3 73 73 N 7 11 30.01 1016 10 16 0.00 0.00
8:56 am 08:56 Sunny 42 5.8 31 -0.3 65 65 N 7 11 30.04 1017 10 16 0.00 0.00
9:56 am 09:56 Sunny 45 7.3 30 -0.9 56 56 N 13 20 30.05 1018 10 16 0.00 0.00
10:56 am 10:56 Sunny 50 9.8 30 -1 47 47 N 14 22 30.07 1018 10 16 0.00 0.00
11:56 am 11:56 undefined 54 12.4 32 -0.2 42 42 N 10 17 30.07 1018 10 16 0.00 0.00
12:56 pm 12:56 Sunny 56 13.5 32 0.2 40 40 N 10 17 30.07 1018 10 16 0.00 0.00
1:56 pm 13:56 Sunny 59 14.9 33 0.3 37 37 N 13 20 30.08 1019 10 16 0.00 0.00
2:56 pm 14:56 Sunny 59 15 33 0.4 37 37 N 8 13 30.09 1019 10 16 0.00 0.00
3:56 pm 15:56 Sunny 56 13.6 32 0.2 40 40 N 10 17 30.11 1020 10 16 0.00 0.00
4:56 pm 16:56 Clear 53 11.6 33 0.4 46 46 N 9 15 30.15 1021 10 16 0.00 0.00
5:56 pm 17:56 Clear 50 10 33 0.3 51 51 N 10 17 30.18 1022 10 16 0.00 0.00
6:56 pm 18:56 Clear 48 8.7 33 0.4 56 56 N 8 13 30.21 1023 10 16 0.00 0.00
7:56 pm 19:56 Clear 47 8.1 33 0.3 58 58 N 8 13 30.23 1024 10 16 0.00 0.00
8:56 pm 20:56 Partly Cloudy 46 7.5 32 0 59 59 NNE 5 7 30.25 1024 10 16 0.00 0.00
9:56 pm 21:56 undefined 44 6.9 32 0.1 62 62 NE 6 9 30.26 1025 10 16 0.00 0.00
10:56 pm 22:56 Mostly Clear 41 5.2 32 0.2 70 70 NNE 8 13 30.27 1025 10 16 0.00 0.00
11:56 pm 23:56 Clear 40 4.7 33 0.5 74 74 Calm 30.29 1026 10 16 0.00 0.00

Powered by AerisWeather